JOE121 KMEM-KBNA

Flight info

Callsign JOE121
Flight time 0h 44m
Altitude 21000
Route GOETZ7 DIYAB CHSNE CHSNE2
Aircraft A20N/M-SDE2E3FGHIRWXY/LB1

Departure

Time 2026-05-06 01:05
Airport Memphis International Airport (KMEM)

Arrival

Time 2026-05-06 01:49
Airport Nashville International Airport (KBNA)
Time Latitude Longitude Altitude Speed Heading
2026-05-06 00:20 35.04306 -89.97914 315 ft 0 kts 240°
2026-05-06 00:27 35.04308 -89.97912 314 ft 0 kts 249°
2026-05-06 00:47 35.04310 -89.97904 316 ft 0 kts 249°
2026-05-06 00:48 35.04313 -89.97896 316 ft 1 kts 249°
2026-05-06 00:48 35.04315 -89.97887 316 ft 1 kts 249°
2026-05-06 00:48 35.04319 -89.97877 316 ft 1 kts 269°
2026-05-06 00:48 35.04319 -89.97869 316 ft 1 kts 292°
2026-05-06 00:49 35.04316 -89.97861 316 ft 2 kts 316°
2026-05-06 00:49 35.04305 -89.97852 313 ft 2 kts 352°
2026-05-06 00:49 35.04292 -89.97850 315 ft 0 kts
2026-05-06 00:51 35.04293 -89.97850 315 ft 0 kts
2026-05-06 00:58 35.04302 -89.97850 316 ft 9 kts
2026-05-06 00:58 35.04425 -89.97844 315 ft 15 kts
2026-05-06 00:59 35.04542 -89.97841 314 ft 19 kts 359°
2026-05-06 00:59 35.04653 -89.97777 313 ft 19 kts 28°
2026-05-06 00:59 35.04797 -89.97754 312 ft 23 kts 360°
2026-05-06 00:59 35.04954 -89.97757 314 ft 23 kts 360°
2026-05-06 01:00 35.05123 -89.97760 315 ft 25 kts
2026-05-06 01:00 35.05279 -89.97767 319 ft 17 kts 350°
2026-05-06 01:00 35.05328 -89.97772 321 ft 4 kts 358°
2026-05-06 01:00 35.05339 -89.97773 321 ft 0 kts 356°
2026-05-06 01:02 35.05383 -89.97778 323 ft 5 kts 351°
2026-05-06 01:02 35.05429 -89.97768 323 ft 6 kts 33°
2026-05-06 01:02 35.05437 -89.97758 324 ft 0 kts 52°
2026-05-06 01:04 35.05439 -89.97754 324 ft 3 kts 56°
2026-05-06 01:04 35.05448 -89.97706 324 ft 11 kts 84°
2026-05-06 01:04 35.05415 -89.97620 325 ft 13 kts 155°
2026-05-06 01:04 35.05249 -89.97610 321 ft 56 kts 180°
2026-05-06 01:05 35.04559 -89.97598 318 ft 139 kts 180°
2026-05-06 01:05 35.03451 -89.97578 734 ft 171 kts 184°
2026-05-06 01:05 35.02210 -89.97581 1560 ft 179 kts 186°
2026-05-06 01:05 35.00970 -89.97557 2502 ft 183 kts 188°
2026-05-06 01:06 34.99621 -89.97580 3072 ft 206 kts 188°
2026-05-06 01:06 34.98127 -89.97363 3777 ft 226 kts 174°
2026-05-06 01:06 34.96588 -89.96688 4411 ft 250 kts 167°
2026-05-06 01:06 34.94932 -89.95836 4526 ft 264 kts 159°
2026-05-06 01:07 34.93518 -89.94349 4659 ft 280 kts 133°
2026-05-06 01:07 34.92691 -89.92143 4807 ft 294 kts 107°
2026-05-06 01:07 34.92477 -89.89624 5245 ft 303 kts 96°
2026-05-06 01:07 34.92452 -89.87049 6278 ft 305 kts 94°
2026-05-06 01:08 34.92613 -89.84430 7189 ft 316 kts 78°
2026-05-06 01:08 34.93445 -89.81944 8103 ft 320 kts 57°
2026-05-06 01:08 34.94611 -89.79605 9039 ft 325 kts 56°
2026-05-06 01:08 34.95782 -89.77221 9954 ft 330 kts 56°
2026-05-06 01:09 34.96975 -89.74763 10534 ft 348 kts 56°
2026-05-06 01:09 34.98238 -89.72125 10832 ft 373 kts 56°
2026-05-06 01:09 34.99567 -89.69303 11327 ft 390 kts 56°
2026-05-06 01:09 35.00917 -89.66403 12080 ft 397 kts 56°
2026-05-06 01:10 35.02295 -89.63440 12861 ft 403 kts 55°
2026-05-06 01:10 35.03675 -89.60481 13623 ft 410 kts 54°
2026-05-06 01:10 35.05103 -89.57444 14327 ft 415 kts 53°
2026-05-06 01:10 35.06554 -89.54383 15053 ft 419 kts 53°
2026-05-06 01:11 35.08022 -89.51279 15766 ft 424 kts 54°
2026-05-06 01:11 35.09500 -89.48139 16485 ft 429 kts 54°
2026-05-06 01:11 35.10992 -89.44958 17159 ft 434 kts 54°
2026-05-06 01:11 35.12495 -89.41744 17844 ft 440 kts 54°
2026-05-06 01:12 35.14022 -89.38474 18477 ft 444 kts 54°
2026-05-06 01:12 35.15554 -89.35185 19126 ft 446 kts 54°
2026-05-06 01:12 35.17093 -89.31878 19750 ft 449 kts 54°
2026-05-06 01:12 35.18644 -89.28541 20336 ft 454 kts 54°
2026-05-06 01:13 35.20207 -89.25179 20449 ft 454 kts 54°
2026-05-06 01:13 35.21625 -89.21714 20559 ft 458 kts 63°
2026-05-06 01:13 35.22657 -89.18023 20662 ft 460 kts 69°
2026-05-06 01:13 35.23614 -89.14276 20766 ft 461 kts 68°
2026-05-06 01:14 35.25936 -89.07007 20838 ft 455 kts 61°
2026-05-06 01:14 35.27231 -89.03475 20837 ft 456 kts 61°
2026-05-06 01:14 35.28526 -88.99926 20836 ft 456 kts 61°
2026-05-06 01:15 35.29817 -88.96380 20839 ft 456 kts 61°
2026-05-06 01:15 35.31106 -88.92829 20846 ft 456 kts 61°
2026-05-06 01:15 35.32392 -88.89279 20849 ft 456 kts 61°
2026-05-06 01:15 35.33679 -88.85724 20840 ft 456 kts 61°
2026-05-06 01:16 35.34755 -88.82750 20846 ft 453 kts 62°
2026-05-06 01:16 35.36029 -88.79221 20847 ft 453 kts 62°
2026-05-06 01:16 35.37304 -88.75690 20837 ft 454 kts 62°
2026-05-06 01:16 35.38581 -88.72151 20851 ft 454 kts 62°
2026-05-06 01:17 35.39854 -88.68615 20848 ft 454 kts 62°
2026-05-06 01:17 35.41128 -88.65070 20848 ft 454 kts 62°
2026-05-06 01:17 35.42401 -88.61528 20850 ft 454 kts 62°
2026-05-06 01:17 35.43673 -88.57983 20851 ft 454 kts 62°
2026-05-06 01:18 35.44941 -88.54444 20851 ft 454 kts 62°
2026-05-06 01:18 35.46210 -88.50898 20854 ft 454 kts 62°
2026-05-06 01:18 35.47476 -88.47358 20852 ft 454 kts 62°
2026-05-06 01:18 35.48744 -88.43809 20857 ft 453 kts 62°
2026-05-06 01:19 35.50006 -88.40275 20852 ft 451 kts 63°
2026-05-06 01:19 35.51261 -88.36755 20855 ft 451 kts 63°
2026-05-06 01:19 35.52504 -88.33265 20856 ft 452 kts 63°
2026-05-06 01:19 35.53751 -88.29728 20859 ft 451 kts 63°
2026-05-06 01:20 35.54996 -88.26195 20857 ft 451 kts 63°
2026-05-06 01:20 35.56250 -88.22662 20860 ft 451 kts 63°
2026-05-06 01:20 35.57504 -88.19127 20860 ft 451 kts 63°
2026-05-06 01:20 35.58757 -88.15592 20859 ft 451 kts 63°
2026-05-06 01:21 35.60007 -88.12057 20858 ft 451 kts 63°
2026-05-06 01:21 35.61256 -88.08525 20860 ft 451 kts 63°
2026-05-06 01:21 35.62500 -88.05002 20747 ft 447 kts 63°
2026-05-06 01:21 35.63731 -88.01511 20326 ft 445 kts 63°
2026-05-06 01:22 35.64957 -87.98030 19795 ft 443 kts 63°
2026-05-06 01:22 35.66174 -87.94572 19236 ft 440 kts 63°
2026-05-06 01:22 35.67385 -87.91123 18669 ft 438 kts 64°
2026-05-06 01:22 35.68588 -87.87696 18102 ft 436 kts 64°
2026-05-06 01:23 35.69783 -87.84285 17536 ft 432 kts 64°
2026-05-06 01:23 35.70967 -87.80904 16960 ft 428 kts 64°
2026-05-06 01:23 35.72137 -87.77556 16421 ft 424 kts 64°
2026-05-06 01:23 35.73299 -87.74232 15885 ft 421 kts 64°
2026-05-06 01:24 35.74453 -87.70932 15368 ft 417 kts 64°
2026-05-06 01:24 35.75591 -87.67671 14919 ft 412 kts 65°
2026-05-06 01:24 35.76714 -87.64448 14399 ft 409 kts 65°
2026-05-06 01:24 35.77831 -87.61236 13867 ft 407 kts 65°
2026-05-06 01:25 35.78945 -87.58029 13372 ft 403 kts 65°
2026-05-06 01:25 35.80039 -87.54876 12828 ft 399 kts 65°
2026-05-06 01:25 35.81133 -87.51746 12351 ft 394 kts 64°
2026-05-06 01:25 35.82219 -87.48685 12248 ft 394 kts 64°
2026-05-06 01:26 35.83322 -87.45570 12140 ft 396 kts 64°
2026-05-06 01:26 35.84421 -87.42470 12036 ft 394 kts 65°
2026-05-06 01:26 35.85515 -87.39374 11988 ft 394 kts 65°
2026-05-06 01:26 35.86602 -87.36285 11979 ft 391 kts 65°
2026-05-06 01:27 35.87685 -87.33191 11984 ft 395 kts 65°
2026-05-06 01:27 35.88773 -87.30081 11984 ft 394 kts 65°
2026-05-06 01:27 35.89856 -87.26982 11983 ft 394 kts 65°
2026-05-06 01:27 35.90937 -87.23886 11979 ft 394 kts 65°
2026-05-06 01:28 35.92022 -87.20780 11984 ft 394 kts 65°
2026-05-06 01:28 35.93102 -87.17679 11982 ft 394 kts 65°
2026-05-06 01:28 35.94186 -87.14566 11981 ft 394 kts 65°
2026-05-06 01:28 35.95267 -87.11458 11975 ft 394 kts 65°
2026-05-06 01:29 35.96330 -87.08342 11979 ft 394 kts 67°
2026-05-06 01:29 35.97385 -87.05222 11975 ft 394 kts 66°
2026-05-06 01:29 35.98446 -87.02119 11823 ft 391 kts 66°
2026-05-06 01:29 35.99511 -86.99038 11442 ft 389 kts 66°
2026-05-06 01:30 36.00561 -86.96022 10961 ft 385 kts 66°
2026-05-06 01:30 36.01611 -86.93007 10593 ft 376 kts 66°
2026-05-06 01:30 36.02614 -86.90121 10370 ft 356 kts 66°
2026-05-06 01:30 36.03564 -86.87385 10182 ft 337 kts 66°
2026-05-06 01:31 36.04463 -86.84795 10017 ft 319 kts 66°
2026-05-06 01:31 36.05532 -86.82479 9677 ft 306 kts 45°
2026-05-06 01:31 36.07189 -86.80930 9327 ft 284 kts 17°
2026-05-06 01:31 36.09068 -86.80130 9371 ft 289 kts
2026-05-06 01:32 36.10942 -86.79514 9384 ft 276 kts
2026-05-06 01:32 36.12752 -86.78915 9272 ft 263 kts
2026-05-06 01:32 36.14526 -86.78298 9175 ft 268 kts
2026-05-06 01:32 36.16308 -86.77645 9076 ft 265 kts
2026-05-06 01:33 36.18065 -86.77004 8792 ft 263 kts
2026-05-06 01:33 36.19824 -86.76373 8371 ft 263 kts
2026-05-06 01:33 36.21581 -86.75742 8008 ft 263 kts
2026-05-06 01:33 36.23338 -86.75109 7649 ft 262 kts
2026-05-06 01:34 36.25094 -86.74472 7262 ft 263 kts
2026-05-06 01:34 36.26850 -86.73834 6910 ft 262 kts
2026-05-06 01:34 36.28585 -86.73199 6602 ft 259 kts
2026-05-06 01:34 36.30312 -86.72570 6252 ft 259 kts
2026-05-06 01:35 36.32045 -86.71943 5863 ft 259 kts
2026-05-06 01:35 36.33741 -86.71327 5740 ft 248 kts
2026-05-06 01:35 36.35361 -86.70729 5626 ft 239 kts
2026-05-06 01:35 36.36940 -86.70151 5418 ft 235 kts
2026-05-06 01:36 36.38511 -86.69585 5115 ft 236 kts
2026-05-06 01:36 36.40097 -86.69003 4788 ft 238 kts 10°
2026-05-06 01:36 36.41676 -86.68413 4543 ft 235 kts 10°
2026-05-06 01:36 36.43257 -86.67834 4214 ft 237 kts 11°
2026-05-06 01:37 36.44827 -86.67264 4060 ft 234 kts 11°
2026-05-06 01:37 36.46430 -86.66685 3999 ft 243 kts 11°
2026-05-06 01:37 36.47498 -86.66294 3986 ft 239 kts 12°
2026-05-06 01:37 36.49620 -86.65515 3983 ft 238 kts 12°
2026-05-06 01:38 36.50675 -86.65128 3981 ft 240 kts 12°
2026-05-06 01:38 36.52287 -86.64536 3983 ft 241 kts 11°
2026-05-06 01:38 36.53885 -86.63908 3968 ft 243 kts 22°
2026-05-06 01:38 36.55198 -86.62610 3985 ft 244 kts 58°
2026-05-06 01:39 36.55784 -86.60706 3982 ft 232 kts 95°
2026-05-06 01:39 36.55489 -86.58851 3991 ft 210 kts 131°
2026-05-06 01:39 36.54511 -86.57693 3992 ft 186 kts 168°
2026-05-06 01:39 36.53299 -86.57458 3987 ft 174 kts 188°
2026-05-06 01:40 36.52107 -86.57599 3995 ft 170 kts 194°
2026-05-06 01:40 36.50942 -86.57845 3994 ft 170 kts 195°
2026-05-06 01:40 36.49770 -86.58088 3996 ft 170 kts 195°
2026-05-06 01:40 36.48646 -86.58296 3992 ft 160 kts 194°
2026-05-06 01:41 36.47606 -86.58474 3998 ft 161 kts 194°
2026-05-06 01:41 36.46490 -86.58662 4003 ft 162 kts 193°
2026-05-06 01:41 36.45366 -86.58843 3998 ft 164 kts 193°
2026-05-06 01:41 36.44240 -86.59015 4007 ft 161 kts 193°
2026-05-06 01:42 36.43133 -86.59192 4007 ft 162 kts 193°
2026-05-06 01:42 36.41832 -86.59413 4004 ft 161 kts 193°
2026-05-06 01:42 36.40720 -86.59590 4007 ft 164 kts 193°
2026-05-06 01:42 36.39586 -86.59765 4008 ft 164 kts 193°
2026-05-06 01:43 36.38455 -86.59941 3997 ft 163 kts 193°
2026-05-06 01:43 36.37329 -86.60122 3996 ft 162 kts 193°
2026-05-06 01:43 36.36220 -86.60298 3995 ft 160 kts 194°
2026-05-06 01:43 36.35115 -86.60475 3997 ft 160 kts 193°
2026-05-06 01:44 36.34003 -86.60654 4007 ft 164 kts 194°
2026-05-06 01:44 36.32870 -86.60836 3995 ft 164 kts 193°
2026-05-06 01:44 36.31744 -86.61015 3994 ft 162 kts 194°
2026-05-06 01:44 36.30642 -86.61216 4004 ft 159 kts 199°
2026-05-06 01:45 36.29593 -86.61615 3987 ft 158 kts 203°
2026-05-06 01:45 36.28541 -86.62051 4001 ft 161 kts 201°
2026-05-06 01:45 36.27498 -86.62430 4019 ft 146 kts 202°
2026-05-06 01:45 36.26577 -86.62796 4004 ft 135 kts 202°
2026-05-06 01:46 36.25673 -86.63156 3761 ft 138 kts 201°
2026-05-06 01:46 36.24768 -86.63494 3316 ft 133 kts 202°
2026-05-06 01:46 36.23896 -86.63912 2742 ft 137 kts 202°
2026-05-06 01:46 36.23088 -86.64270 2674 ft 122 kts 199°
2026-05-06 01:47 36.22256 -86.64581 2519 ft 123 kts 198°
2026-05-06 01:47 36.21433 -86.64880 2386 ft 122 kts 199°
2026-05-06 01:47 36.20687 -86.65196 2232 ft 108 kts 197°
2026-05-06 01:47 36.19927 -86.65486 2050 ft 118 kts 196°
2026-05-06 01:48 36.19117 -86.65788 1748 ft 128 kts 195°
2026-05-06 01:48 36.18171 -86.66152 1548 ft 153 kts 194°
2026-05-06 01:48 36.17114 -86.66549 1368 ft 165 kts 194°
2026-05-06 01:48 36.16009 -86.66977 1236 ft 153 kts 197°
2026-05-06 01:49 36.15047 -86.67363 910 ft 139 kts 196°
2026-05-06 01:49 36.14159 -86.67709 675 ft 126 kts 196°
2026-05-06 01:49 36.13353 -86.68032 579 ft 114 kts 197°
2026-05-06 01:49 36.12808 -86.68242 578 ft 40 kts 198°
2026-05-06 01:50 36.12714 -86.68279 580 ft 22 kts 194°
2026-05-06 01:50 36.12555 -86.68341 580 ft 25 kts 197°
2026-05-06 01:50 36.12415 -86.68377 579 ft 16 kts 207°
2026-05-06 01:50 36.12284 -86.68431 584 ft 20 kts 170°
2026-05-06 01:51 36.12167 -86.68362 586 ft 11 kts 153°
2026-05-06 01:51 36.12158 -86.68356 586 ft 0 kts 153°
2026-05-06 01:52 36.12076 -86.68257 572 ft 11 kts 83°
2026-05-06 01:52 36.12157 -86.68258 577 ft 23 kts 333°
2026-05-06 01:53 36.12318 -86.68233 578 ft 27 kts 13°
2026-05-06 01:53 36.12512 -86.68161 573 ft 30 kts 15°
2026-05-06 01:53 36.12715 -86.68088 578 ft 31 kts 16°
2026-05-06 01:53 36.12928 -86.68009 574 ft 33 kts 17°
2026-05-06 01:54 36.13155 -86.67917 572 ft 36 kts 18°
2026-05-06 01:54 36.13400 -86.67814 572 ft 38 kts 20°
2026-05-06 01:54 36.13610 -86.67672 567 ft 26 kts 69°
2026-05-06 01:54 36.13555 -86.67562 569 ft 36 kts 148°
2026-05-06 01:55 36.13438 -86.67397 567 ft 27 kts 103°
2026-05-06 01:55 36.13451 -86.67179 569 ft 23 kts 64°
2026-05-06 01:55 36.13551 -86.67019 569 ft 22 kts 52°
2026-05-06 01:55 36.13573 -86.66923 573 ft 5 kts 136°
2026-05-06 01:56 36.13554 -86.66908 566 ft 0 kts 145°